TimeEDT,TemperatureF,Dew PointF,Humidity,Sea Level PressureIn,VisibilityMPH,Wind Direction,Wind SpeedMPH,Gust SpeedMPH,PrecipitationIn,Events,Conditions,WindDirDegrees,DateUTC
12:53 AM,57.0,50.0,77,30.19,10.0,Calm,Calm,-,N/A,,Clear,0,2012-09-16 04:53:00
1:53 AM,55.9,48.9,77,30.19,10.0,ENE,3.5,-,N/A,,Partly Cloudy,70,2012-09-16 05:53:00
2:53 AM,55.9,48.9,77,30.18,10.0,Calm,Calm,-,N/A,,Mostly Cloudy,0,2012-09-16 06:53:00
3:53 AM,55.9,48.0,75,30.18,10.0,Calm,Calm,-,N/A,,Clear,0,2012-09-16 07:53:00
4:53 AM,54.0,48.0,80,30.18,10.0,Calm,Calm,-,N/A,,Clear,0,2012-09-16 08:53:00
5:53 AM,54.0,48.9,83,30.18,9.0,SSE,4.6,-,N/A,,Mostly Cloudy,150,2012-09-16 09:53:00
6:53 AM,52.0,48.9,89,30.20,8.0,East,3.5,-,N/A,,Partly Cloudy,80,2012-09-16 10:53:00
7:53 AM,51.1,48.0,89,30.22,7.0,Calm,Calm,-,N/A,,Scattered Clouds,0,2012-09-16 11:53:00
8:53 AM,55.9,51.1,84,30.22,7.0,ENE,4.6,-,N/A,,Mostly Cloudy,60,2012-09-16 12:53:00
9:53 AM,63.0,51.1,65,30.22,10.0,NW,3.5,-,N/A,,Mostly Cloudy,320,2012-09-16 13:53:00
10:53 AM,66.0,46.0,48,30.22,10.0,NNW,4.6,-,N/A,,Clear,330,2012-09-16 14:53:00
11:53 AM,69.1,43.0,39,30.20,10.0,North,8.1,-,N/A,,Clear,360,2012-09-16 15:53:00
12:53 PM,71.1,42.1,35,30.18,10.0,WNW,4.6,-,N/A,,Clear,290,2012-09-16 16:53:00
1:53 PM,70.0,41.0,35,30.16,10.0,Calm,Calm,-,N/A,,Clear,0,2012-09-16 17:53:00
2:53 PM,73.0,43.0,34,30.13,10.0,Calm,Calm,-,N/A,,Clear,0,2012-09-16 18:53:00
3:53 PM,72.0,46.0,40,30.12,10.0,Variable,3.5,-,N/A,,Clear,0,2012-09-16 19:53:00
4:53 PM,71.1,46.9,42,30.12,10.0,Variable,5.8,-,N/A,,Clear,0,2012-09-16 20:53:00
5:53 PM,71.1,46.0,41,30.11,10.0,WSW,3.5,-,N/A,,Clear,240,2012-09-16 21:53:00
6:53 PM,70.0,46.9,44,30.12,10.0,SW,3.5,-,N/A,,Clear,230,2012-09-16 22:53:00
7:53 PM,66.9,48.0,51,30.12,10.0,Calm,Calm,-,N/A,,Clear,0,2012-09-16 23:53:00
8:53 PM,64.0,50.0,60,30.14,10.0,East,4.6,-,N/A,,Clear,100,2012-09-17 00:53:00
9:53 PM,61.0,50.0,67,30.14,10.0,ESE,4.6,-,N/A,,Clear,120,2012-09-17 01:53:00
10:53 PM,59.0,50.0,72,30.14,10.0,Calm,Calm,-,N/A,,Clear,0,2012-09-17 02:53:00
11:53 PM,57.0,48.9,74,30.14,10.0,East,4.6,-,N/A,,Clear,80,2012-09-17 03:53:00